San Antonio Stinson, TX

2:48 AM CDT on June 29, 2017 (GMT -0500)
Stinson Municipal

Weather History for KSSF - October, 2011

Change the Weather History Date:

Monday, October 10, 2011

  Actual Average Record
Temperature  
Mean Temperature 74 °F -  
Max Temperature 82 °F 79 °F 93 °F (2014)
Min Temperature 68 °F 60 °F 43 °F (2000)
Cooling Degree Days 9    
Growing Degree Days 24 (Base 50)    
Moisture  
Dew Point 63 °F    
Average Humidity 71    
Maximum Humidity 83    
Minimum Humidity 54    
Precipitation  
Precipitation 0.00 in - - ()
Sea Level Pressure  
Sea Level Pressure 29.98 in    
Wind  
Wind Speed 4 mph (NNE)    
Max Wind Speed 6 mph    
Max Gust Speed -    
Visibility 10 miles    
Events      
Averages and records for this station are not official NWS values.
T = Trace of Precipitation, MM = Missing Value Source: NWS Daily Summary

Daily Weather History Graph

Daily Weather History Graph

Search for Another Location

Airport or City:

Trip Planner

Search our weather history database for the weather conditions in past years. The results will help you decide how hot, cold, wet, or windy it might be!

Date:

Astronomy

Oct. 10, 2011 Rise Set
Actual Time 7:32 AM CDT 7:09 PM CDT
Civil Twilight 7:08 AM CDT 7:33 PM CDT
Nautical Twilight 6:40 AM CDT 8:00 PM CDT
Astronomical Twilight 6:13 AM CDT 8:28 PM CDT
Moon 6:13 PM CDT (10/10) 6:16 AM CDT (10/10)
Length of Visible Light 12h 24m
Length of Day
11h 37m
Waxing Gibbous, 98% of the Moon is Illuminated
Oct 10
Waxing Gibbous
Oct 11
Full
Oct 19
Last Quarter
Oct 26
New
Nov 2
First Quarter

Hourly Weather History & Observations

Time (CDT) Temp. Heat Index Dew Point Humidity Pressure Visibility Wind Dir Wind Speed Gust Speed Precip Events Conditions
12:53 AM 69.1 °F - 62.1 °F 78% 30.00 in 10.0 mi North - - N/A   Overcast
1:53 AM 69.1 °F - 62.1 °F 78% 29.99 in 10.0 mi North - - N/A   Overcast
2:51 AM 68.0 °F - 62.6 °F 83% 30.00 in 10.0 mi North - - N/A   Mostly Cloudy
2:53 AM 68.0 °F - 62.1 °F 81% 29.98 in 10.0 mi North - - N/A   Mostly Cloudy
3:27 AM 68.0 °F - 62.6 °F 83% 29.99 in 10.0 mi North - - N/A   Mostly Cloudy
3:53 AM 68.0 °F - 62.1 °F 81% 29.97 in 10.0 mi North - - N/A   Overcast
5:53 AM 68.0 °F - 62.1 °F 81% 29.98 in 10.0 mi North - - N/A   Overcast
6:53 AM 68.0 °F - 62.1 °F 81% 29.99 in 10.0 mi NE 3.5 mph - N/A   Overcast
8:53 AM 70.0 °F - 63.0 °F 78% 30.00 in 10.0 mi NE 5.8 mph - N/A   Overcast
9:53 AM 71.1 °F - 63.0 °F 75% 30.02 in 10.0 mi NNE 4.6 mph - N/A   Overcast
10:53 AM 72.0 °F - 63.0 °F 73% 30.04 in 10.0 mi NE 5.8 mph - N/A   Overcast
11:53 AM 73.9 °F - 63.0 °F 68% 30.03 in 10.0 mi NNE 4.6 mph - N/A   Overcast
1:15 PM 77.0 °F - 62.6 °F 61% 30.03 in 10.0 mi North 5.8 mph - N/A   Overcast
1:39 PM 78.8 °F - 62.6 °F 57% 30.01 in 10.0 mi North 5.8 mph - N/A   Overcast
1:53 PM 79.0 °F - 62.1 °F 56% 29.98 in 10.0 mi Variable 4.6 mph - N/A   Mostly Cloudy
2:18 PM 78.8 °F - 62.6 °F 57% 30.00 in 10.0 mi Variable 3.5 mph - N/A   Mostly Cloudy
3:53 PM 80.1 °F 81.5 °F 63.0 °F 56% 29.94 in 10.0 mi NNE 5.8 mph - N/A   Overcast
4:53 PM 80.1 °F 81.2 °F 62.1 °F 54% 29.92 in 10.0 mi Variable 3.5 mph - N/A   Partly Cloudy
5:53 PM 79.0 °F - 62.1 °F 56% 29.91 in 10.0 mi ENE 5.8 mph - N/A   Overcast
7:53 PM 75.0 °F - 63.0 °F 66% 29.92 in 10.0 mi NNE 3.5 mph - N/A   Clear
8:53 PM 73.0 °F - 63.0 °F 71% 29.94 in 10.0 mi Calm Calm - N/A   Clear
9:53 PM 72.0 °F - 63.0 °F 73% 29.95 in 10.0 mi North 3.5 mph - N/A   Clear
10:53 PM 70.0 °F - 63.0 °F 78% 29.95 in 10.0 mi NNE 3.5 mph - N/A   Clear
11:53 PM 69.1 °F - 62.1 °F 78% 29.94 in 10.0 mi North 3.5 mph - N/A   Clear